{"data":{"norad_id":67158,"intl_designator":"2025-301AB","name":"KUIPER-00261","alt_names":[],"object_type":"PAYLOAD","status":"ACTIVE","operator":null,"country":"US","launch_date":"2025-12-16","launch_site_code":"AFETR","launch_vehicle":null,"mission":null,"orbit_class":"UNKNOWN","rcs_meters":null,"size_class":null,"mass_kg":null,"dimensions":null,"purposes":[],"wikipedia_slug":null,"has_3d_model":false,"image_url":null,"decayed_at":null,"tle_current":{"epoch":"2026-09-20T08:12:39.561120Z","epoch_age_seconds":119819,"freshness":"FRESH","line1":"1 67158U 25301AB  26263.34212455  .00004537  00000+0  62337-3 0  9995","line2":"2 67158  51.9004 289.9276 0000790  97.2168 262.8884 14.79962267 42489","mean_motion":14.79962267,"eccentricity":7.9e-5,"inclination_deg":51.9004,"raan_deg":289.9276,"arg_perigee_deg":97.2168,"mean_anomaly_deg":262.8884,"bstar":0.00062337,"rev_number":4248,"period_min":97.299777981434,"perigee_km":628.88964319178,"apogee_km":629.99684087002,"semimajor_km":7007.5802420309,"source":"CELESTRAK","updated_at":"2026-09-21T09:00:16.461200Z"}}}